Wetterdaten: Woche 21.03.16 - 27.03.16 (KW12)
Datum Zeit Auen-Temp. Temp gefhlt Luftfeuchte Luftdruck Regen Wind Richtung Sonnenschein Taupunkt Windben
21.03.2016 00:00 0,0 C -0,3 C 81 % 1015,6 hPa 0,0 mm 3,9 km/h (1 Bft) O-NO 0,00 h -2,9 C 5,7 km/h (1 Bft)
21.03.2016 01:00 -0,1 C -0,3 C 81 % 1015,8 hPa 0,0 mm 4,0 km/h (1 Bft) NO 0,00 h -2,9 C 4,1 km/h (1 Bft)
21.03.2016 02:00 -0,2 C -0,3 C 81 % 1015,7 hPa 0,0 mm 1,9 km/h (1 Bft) O-NO 0,00 h -3,1 C 3,1 km/h (1 Bft)
21.03.2016 03:00 -0,2 C -0,4 C 85 % 1015,4 hPa 0,0 mm 2,2 km/h (1 Bft) NO 0,00 h -2,4 C 2,7 km/h (1 Bft)
21.03.2016 04:00 -0,3 C -0,5 C 86 % 1015,4 hPa 0,0 mm 1,5 km/h (1 Bft) NO 0,00 h -2,4 C 2,6 km/h (1 Bft)
21.03.2016 05:00 -0,1 C -0,3 C 87 % 1015,1 hPa 0,0 mm 2,7 km/h (1 Bft) O-NO 0,00 h -2,0 C 3,6 km/h (1 Bft)
21.03.2016 06:00 -0,1 C -0,2 C 84 % 1015,3 hPa 0,0 mm 0,3 km/h (0 Bft) N 0,00 h -2,4 C 0,3 km/h (0 Bft)
21.03.2016 07:00 0,3 C 0,4 C 85 % 1015,5 hPa 0,0 mm 0,2 km/h (0 Bft) N 0,00 h -1,9 C 0,0 km/h (0 Bft)
21.03.2016 08:00 0,8 C 1,5 C 84 % 1015,7 hPa 0,0 mm 1,5 km/h (1 Bft) N-NO 0,00 h -1,5 C 2,1 km/h (1 Bft)
21.03.2016 09:00 1,5 C 2,9 C 83 % 1016,0 hPa 0,0 mm 1,1 km/h (0 Bft) NO 0,00 h -1,0 C 0,6 km/h (0 Bft)
21.03.2016 10:00 2,2 C 4,2 C 82 % 1016,1 hPa 0,0 mm 1,4 km/h (1 Bft) O-NO 0,00 h -0,6 C 2,7 km/h (1 Bft)
21.03.2016 11:00 2,7 C 4,6 C 80 % 1016,1 hPa 0,0 mm 1,9 km/h (1 Bft) NO 0,00 h -0,5 C 2,4 km/h (1 Bft)
21.03.2016 12:00 3,4 C 6,0 C 78 % 1015,9 hPa 0,0 mm 1,4 km/h (1 Bft) O-NO 0,08 h -0,1 C 1,8 km/h (1 Bft)
21.03.2016 13:00 4,3 C 8,0 C 75 % 1015,4 hPa 0,0 mm 0,5 km/h (0 Bft) SO 0,33 h 0,3 C 0,9 km/h (0 Bft)
21.03.2016 14:00 5,1 C 8,2 C 72 % 1015,1 hPa 0,0 mm 3,0 km/h (1 Bft) NW 0,50 h 0,5 C 4,2 km/h (1 Bft)
21.03.2016 15:00 5,2 C 6,4 C 70 % 1014,7 hPa 0,0 mm 5,5 km/h (1 Bft) W-NW 0,00 h 0,1 C 6,3 km/h (2 Bft)
21.03.2016 16:00 4,9 C 5,1 C 70 % 1014,6 hPa 0,0 mm 6,5 km/h (2 Bft) W-NW 0,00 h -0,1 C 8,4 km/h (2 Bft)
21.03.2016 17:00 4,4 C 4,4 C 70 % 1014,6 hPa 0,0 mm 2,4 km/h (1 Bft) S-SW 0,00 h -0,6 C 2,5 km/h (1 Bft)
21.03.2016 18:00 3,8 C 3,7 C 71 % 1014,6 hPa 0,0 mm 5,0 km/h (1 Bft) SW 0,00 h -0,9 C 7,3 km/h (2 Bft)
21.03.2016 19:00 3,3 C 3,2 C 72 % 1014,8 hPa 0,0 mm 1,8 km/h (1 Bft) SW 0,00 h -1,2 C 1,7 km/h (1 Bft)
21.03.2016 20:00 3,0 C 2,8 C 73 % 1014,7 hPa 0,0 mm 0,4 km/h (0 Bft) O-NO 0,00 h -1,3 C 0,0 km/h (0 Bft)
21.03.2016 21:00 2,7 C 2,5 C 76 % 1014,8 hPa 0,0 mm 0,2 km/h (0 Bft) SW 0,00 h -1,2 C 0,8 km/h (0 Bft)
21.03.2016 22:00 2,7 C 2,5 C 77 % 1014,8 hPa 0,0 mm 0,4 km/h (0 Bft) S-SW 0,00 h -1,0 C 0,0 km/h (0 Bft)
21.03.2016 23:00 2,5 C 2,4 C 77 % 1014,7 hPa 0,0 mm 0,1 km/h (0 Bft) N 0,00 h -1,1 C 0,3 km/h (0 Bft)
22.03.2016 00:00 2,2 C 2,1 C 78 % 1014,2 hPa 0,0 mm 0,6 km/h (0 Bft) N-NO 0,00 h -1,1 C 0,4 km/h (0 Bft)
22.03.2016 01:00 1,9 C 1,7 C 79 % 1014,0 hPa 0,0 mm 0,2 km/h (0 Bft) N 0,00 h -1,4 C 0,3 km/h (0 Bft)
22.03.2016 02:00 1,7 C 1,5 C 80 % 1013,7 hPa 0,0 mm 0,0 km/h (0 Bft) N 0,00 h -1,3 C 0,0 km/h (0 Bft)
22.03.2016 03:00 1,6 C 1,4 C 81 % 1013,1 hPa 0,0 mm 0,1 km/h (0 Bft) N 0,00 h -1,4 C 0,0 km/h (0 Bft)
22.03.2016 04:00 1,1 C 0,9 C 81 % 1012,7 hPa 0,0 mm 0,0 km/h (0 Bft) N 0,00 h -1,8 C 0,0 km/h (0 Bft)
22.03.2016 05:00 0,9 C 0,6 C 83 % 1012,4 hPa 0,0 mm 0,0 km/h (0 Bft) N 0,00 h -1,7 C 0,0 km/h (0 Bft)
22.03.2016 06:00 0,7 C 0,5 C 83 % 1012,5 hPa 0,0 mm 0,0 km/h (0 Bft) N 0,00 h -1,8 C 0,0 km/h (0 Bft)
22.03.2016 07:00 1,1 C 1,3 C 82 % 1012,5 hPa 0,0 mm 0,1 km/h (0 Bft) W-SW 0,00 h -1,6 C 0,6 km/h (0 Bft)
22.03.2016 08:00 2,3 C 3,2 C 80 % 1012,4 hPa 0,0 mm 3,0 km/h (1 Bft) N-NO 0,00 h -0,8 C 6,0 km/h (2 Bft)
22.03.2016 09:00 3,3 C 5,2 C 78 % 1012,4 hPa 0,0 mm 4,5 km/h (1 Bft) NW 0,00 h -0,2 C 4,5 km/h (1 Bft)
22.03.2016 10:00 4,2 C 7,0 C 74 % 1012,2 hPa 0,0 mm 3,4 km/h (1 Bft) NO 0,17 h -0,0 C 4,4 km/h (1 Bft)
22.03.2016 11:00 5,0 C 8,6 C 68 % 1011,8 hPa 0,0 mm 3,7 km/h (1 Bft) N-NO 0,50 h -0,4 C 5,3 km/h (1 Bft)
22.03.2016 12:00 5,7 C 8,8 C 63 % 1011,8 hPa 0,0 mm 6,5 km/h (2 Bft) O-NO 0,42 h -0,8 C 9,3 km/h (2 Bft)
22.03.2016 13:00 5,9 C 8,3 C 59 % 1011,3 hPa 0,0 mm 7,4 km/h (2 Bft) N-NO 0,00 h -1,5 C 9,3 km/h (2 Bft)
22.03.2016 14:00 6,3 C 8,3 C 58 % 1011,0 hPa 0,0 mm 5,8 km/h (2 Bft) W-NW 0,00 h -1,5 C 7,2 km/h (2 Bft)
22.03.2016 15:00 6,4 C 8,0 C 56 % 1010,4 hPa 0,0 mm 6,7 km/h (2 Bft) N-NO 0,00 h -1,8 C 9,0 km/h (2 Bft)
22.03.2016 16:00 6,0 C 6,8 C 56 % 1010,0 hPa 0,0 mm 4,0 km/h (1 Bft) N-NO 0,00 h -2,1 C 6,0 km/h (2 Bft)
22.03.2016 17:00 5,3 C 5,5 C 57 % 1009,8 hPa 0,0 mm 0,8 km/h (0 Bft) N-NO 0,00 h -2,5 C 1,6 km/h (1 Bft)
22.03.2016 18:00 4,2 C 4,1 C 59 % 1009,7 hPa 0,0 mm 2,4 km/h (1 Bft) NO 0,00 h -3,0 C 3,1 km/h (1 Bft)
22.03.2016 19:00 3,5 C 3,3 C 62 % 1009,7 hPa 0,0 mm 0,8 km/h (0 Bft) O-SO 0,00 h -3,1 C 1,4 km/h (1 Bft)
22.03.2016 20:00 3,0 C 2,8 C 64 % 1009,6 hPa 0,0 mm 0,7 km/h (0 Bft) SO 0,00 h -3,1 C 1,4 km/h (1 Bft)
22.03.2016 21:00 2,5 C 2,2 C 68 % 1009,4 hPa 0,0 mm 0,0 km/h (0 Bft) N 0,00 h -2,8 C 0,0 km/h (0 Bft)
22.03.2016 22:00 2,1 C 1,9 C 70 % 1009,1 hPa 0,0 mm 0,0 km/h (0 Bft) N 0,00 h -2,8 C 0,0 km/h (0 Bft)
22.03.2016 23:00 1,5 C 1,2 C 72 % 1008,7 hPa 0,0 mm 0,0 km/h (0 Bft) N 0,00 h -2,9 C 0,0 km/h (0 Bft)
23.03.2016 00:00 1,4 C 1,1 C 74 % 1008,1 hPa 0,0 mm 0,0 km/h (0 Bft) N 0,00 h -2,7 C 0,0 km/h (0 Bft)
23.03.2016 01:00 0,8 C 0,5 C 75 % 1007,5 hPa 0,0 mm 0,0 km/h (0 Bft) N 0,00 h -3,1 C 0,0 km/h (0 Bft)
23.03.2016 02:00 0,5 C 0,2 C 77 % 1007,1 hPa 0,0 mm 0,0 km/h (0 Bft) N 0,00 h -3,0 C 0,0 km/h (0 Bft)
23.03.2016 03:00 0,3 C -0,0 C 78 % 1006,7 hPa 0,0 mm 0,0 km/h (0 Bft) N 0,00 h -3,0 C 0,0 km/h (0 Bft)
23.03.2016 04:00 0,3 C -0,0 C 79 % 1006,3 hPa 0,0 mm 0,0 km/h (0 Bft) N 0,00 h -2,9 C 0,0 km/h (0 Bft)
23.03.2016 05:00 0,4 C 0,1 C 80 % 1006,0 hPa 0,0 mm 0,1 km/h (0 Bft) N 0,00 h -2,7 C 0,3 km/h (0 Bft)
23.03.2016 06:00 0,2 C -0,1 C 80 % 1006,1 hPa 0,0 mm 0,0 km/h (0 Bft) N 0,00 h -2,8 C 0,0 km/h (0 Bft)
23.03.2016 07:00 0,5 C 0,5 C 80 % 1006,4 hPa 0,0 mm 0,0 km/h (0 Bft) N 0,00 h -2,6 C 0,0 km/h (0 Bft)
23.03.2016 08:00 1,3 C 1,8 C 79 % 1006,7 hPa 0,0 mm 1,3 km/h (1 Bft) O-NO 0,00 h -1,9 C 3,2 km/h (1 Bft)
23.03.2016 09:00 1,7 C 2,0 C 78 % 1007,0 hPa 0,0 mm 5,9 km/h (2 Bft) NO 0,00 h -1,7 C 8,7 km/h (2 Bft)
23.03.2016 10:00 1,4 C 1,8 C 79 % 1007,1 hPa 0,0 mm 3,9 km/h (1 Bft) N-NO 0,00 h -1,8 C 4,5 km/h (1 Bft)
23.03.2016 11:00 1,9 C 2,6 C 80 % 1007,2 hPa 0,0 mm 3,1 km/h (1 Bft) O-NO 0,00 h -1,2 C 4,6 km/h (1 Bft)
23.03.2016 12:00 1,6 C 2,1 C 81 % 1007,3 hPa 0,0 mm 1,0 km/h (0 Bft) NO 0,00 h -1,4 C 0,9 km/h (0 Bft)
23.03.2016 13:00 3,2 C 6,4 C 79 % 1007,2 hPa 0,7 mm 3,0 km/h (1 Bft) W 0,25 h -0,0 C 4,4 km/h (1 Bft)
23.03.2016 14:00 3,7 C 6,5 C 74 % 1007,0 hPa 0,0 mm 2,5 km/h (1 Bft) N-NO 0,50 h -0,4 C 2,4 km/h (1 Bft)
23.03.2016 15:00 3,1 C 4,4 C 76 % 1007,1 hPa 0,0 mm 2,5 km/h (1 Bft) W-SW 0,00 h -0,8 C 3,1 km/h (1 Bft)
23.03.2016 16:00 3,8 C 4,6 C 73 % 1007,3 hPa 0,7 mm 5,3 km/h (1 Bft) N-NW 0,00 h -0,6 C 8,7 km/h (2 Bft)
23.03.2016 17:00 3,2 C 3,0 C 71 % 1007,6 hPa 0,0 mm 5,3 km/h (1 Bft) W-SW 0,00 h -1,5 C 5,3 km/h (1 Bft)
23.03.2016 18:00 2,5 C 2,1 C 75 % 1008,2 hPa 0,0 mm 6,7 km/h (2 Bft) S-SW 0,00 h -1,6 C 7,5 km/h (2 Bft)
23.03.2016 19:00 2,1 C 1,6 C 76 % 1008,6 hPa 0,0 mm 8,4 km/h (2 Bft) S-SW 0,00 h -1,7 C 10,4 km/h (2 Bft)
23.03.2016 20:00 1,6 C 1,4 C 78 % 1009,0 hPa 0,0 mm 2,7 km/h (1 Bft) S 0,00 h -1,8 C 3,6 km/h (1 Bft)
23.03.2016 21:00 1,7 C 1,4 C 79 % 1009,4 hPa 0,0 mm 5,9 km/h (2 Bft) S 0,00 h -1,6 C 7,5 km/h (2 Bft)
23.03.2016 22:00 1,8 C 1,4 C 79 % 1009,7 hPa 0,0 mm 6,7 km/h (2 Bft) S 0,00 h -1,4 C 6,7 km/h (2 Bft)
23.03.2016 23:00 1,8 C 1,4 C 79 % 1009,7 hPa 0,0 mm 5,8 km/h (2 Bft) W 0,00 h -1,5 C 7,2 km/h (2 Bft)
24.03.2016 00:00 1,7 C 1,4 C 81 % 1009,8 hPa 0,0 mm 5,1 km/h (1 Bft) SW 0,00 h -1,2 C 5,8 km/h (2 Bft)
24.03.2016 01:00 1,7 C 1,4 C 82 % 1009,9 hPa 0,0 mm 6,2 km/h (2 Bft) SW 0,00 h -1,0 C 8,3 km/h (2 Bft)
24.03.2016 02:00 1,6 C 1,3 C 84 % 1010,1 hPa 0,0 mm 6,0 km/h (2 Bft) W-NW 0,00 h -0,8 C 8,0 km/h (2 Bft)
24.03.2016 03:00 1,5 C 1,3 C 84 % 1010,2 hPa 0,0 mm 2,5 km/h (1 Bft) W 0,00 h -0,9 C 2,7 km/h (1 Bft)
24.03.2016 04:00 1,4 C 1,2 C 84 % 1010,4 hPa 0,0 mm 3,0 km/h (1 Bft) W-SW 0,00 h -1,0 C 4,6 km/h (1 Bft)
24.03.2016 05:00 1,1 C 0,9 C 85 % 1010,7 hPa 0,0 mm 0,4 km/h (0 Bft) SW 0,00 h -1,2 C 0,8 km/h (0 Bft)
24.03.2016 06:00 1,0 C 0,7 C 86 % 1011,2 hPa 0,0 mm 2,1 km/h (1 Bft) S 0,00 h -1,1 C 2,6 km/h (1 Bft)
24.03.2016 07:00 1,4 C 1,5 C 84 % 1011,5 hPa 0,0 mm 2,9 km/h (1 Bft) SW 0,00 h -1,0 C 4,0 km/h (1 Bft)
24.03.2016 08:00 2,4 C 3,1 C 82 % 1012,2 hPa 0,0 mm 5,0 km/h (1 Bft) W 0,00 h -0,3 C 9,2 km/h (2 Bft)
24.03.2016 09:00 3,4 C 4,3 C 79 % 1012,9 hPa 0,0 mm 9,2 km/h (2 Bft) W-SW 0,00 h 0,1 C 12,0 km/h (2 Bft)
24.03.2016 10:00 4,3 C 6,2 C 74 % 1013,4 hPa 0,0 mm 9,9 km/h (2 Bft) W 0,00 h 0,1 C 11,6 km/h (2 Bft)
24.03.2016 11:00 4,6 C 5,8 C 66 % 1013,7 hPa 0,0 mm 8,1 km/h (2 Bft) W 0,00 h -1,3 C 10,6 km/h (2 Bft)
24.03.2016 12:00 5,2 C 6,2 C 63 % 1013,4 hPa 0,0 mm 10,3 km/h (2 Bft) NW 0,00 h -1,2 C 13,4 km/h (3 Bft)
24.03.2016 13:00 6,4 C 7,9 C 57 % 1013,6 hPa 0,0 mm 13,7 km/h (3 Bft) NW 0,17 h -1,5 C 19,2 km/h (3 Bft)
24.03.2016 14:00 6,2 C 7,2 C 56 % 1013,6 hPa 0,0 mm 11,1 km/h (2 Bft) W 0,00 h -1,9 C 14,2 km/h (3 Bft)
24.03.2016 15:00 6,8 C 8,3 C 55 % 1013,5 hPa 0,0 mm 10,6 km/h (2 Bft) W-SW 0,00 h -1,7 C 11,6 km/h (2 Bft)
24.03.2016 16:00 6,5 C 7,0 C 53 % 1013,7 hPa 0,0 mm 11,5 km/h (2 Bft) W 0,00 h -2,5 C 15,4 km/h (3 Bft)
24.03.2016 17:00 5,8 C 5,8 C 55 % 1013,9 hPa 0,0 mm 7,7 km/h (2 Bft) W-NW 0,00 h -2,5 C 9,3 km/h (2 Bft)
24.03.2016 18:00 4,4 C 4,3 C 58 % 1014,3 hPa 0,0 mm 1,4 km/h (1 Bft) SW 0,00 h -3,0 C 1,7 km/h (1 Bft)
24.03.2016 19:00 3,1 C 2,8 C 65 % 1014,6 hPa 0,0 mm 0,6 km/h (0 Bft) SO 0,00 h -2,8 C 0,8 km/h (0 Bft)
24.03.2016 20:00 2,1 C 1,8 C 70 % 1014,9 hPa 0,0 mm 1,2 km/h (1 Bft) S-SO 0,00 h -2,9 C 1,3 km/h (1 Bft)
24.03.2016 21:00 1,1 C 0,8 C 73 % 1014,8 hPa 0,0 mm 0,1 km/h (0 Bft) N 0,00 h -3,1 C 0,0 km/h (0 Bft)
24.03.2016 22:00 0,5 C 0,1 C 76 % 1014,6 hPa 0,0 mm 0,0 km/h (0 Bft) N 0,00 h -3,3 C 0,0 km/h (0 Bft)
24.03.2016 23:00 -0,2 C -0,6 C 77 % 1014,6 hPa 0,0 mm 0,0 km/h (0 Bft) N 0,00 h -3,6 C 0,0 km/h (0 Bft)
25.03.2016 00:00 0,0 C -0,4 C 79 % 1014,5 hPa 0,0 mm 0,4 km/h (0 Bft) NW 0,00 h -3,1 C 0,9 km/h (0 Bft)
25.03.2016 01:00 0,5 C 0,1 C 78 % 1014,4 hPa 0,0 mm 0,3 km/h (0 Bft) S 0,00 h -2,9 C 0,9 km/h (0 Bft)
25.03.2016 02:00 1,4 C 1,1 C 75 % 1014,3 hPa 0,0 mm 4,8 km/h (1 Bft) SW 0,00 h -2,6 C 6,5 km/h (2 Bft)
25.03.2016 03:00 0,6 C 0,4 C 75 % 1014,2 hPa 0,0 mm 0,0 km/h (0 Bft) N 0,00 h -3,3 C 0,0 km/h (0 Bft)
25.03.2016 04:00 0,6 C 0,5 C 77 % 1014,1 hPa 0,0 mm 0,1 km/h (0 Bft) N 0,00 h -3,0 C 0,4 km/h (0 Bft)
25.03.2016 05:00 0,8 C 0,7 C 78 % 1014,0 hPa 0,0 mm 0,1 km/h (0 Bft) N 0,00 h -2,6 C 0,0 km/h (0 Bft)
25.03.2016 06:00 1,9 C 1,6 C 77 % 1014,3 hPa 0,0 mm 4,4 km/h (1 Bft) SW 0,00 h -1,7 C 6,5 km/h (2 Bft)
25.03.2016 07:00 2,6 C 2,4 C 76 % 1014,6 hPa 0,0 mm 5,7 km/h (1 Bft) SW 0,00 h -1,2 C 5,7 km/h (1 Bft)
25.03.2016 08:00 2,8 C 3,3 C 77 % 1014,8 hPa 0,0 mm 5,1 km/h (1 Bft) W 0,00 h -0,8 C 6,4 km/h (2 Bft)
25.03.2016 09:00 3,5 C 4,0 C 78 % 1014,8 hPa 0,0 mm 8,0 km/h (2 Bft) W 0,00 h -0,0 C 9,9 km/h (2 Bft)
25.03.2016 10:00 4,2 C 5,0 C 78 % 1014,6 hPa 0,0 mm 8,2 km/h (2 Bft) NW 0,00 h 0,7 C 10,4 km/h (2 Bft)
25.03.2016 11:00 5,2 C 6,6 C 75 % 1014,5 hPa 0,0 mm 9,0 km/h (2 Bft) W-SW 0,00 h 1,2 C 12,4 km/h (3 Bft)
25.03.2016 12:00 4,8 C 5,3 C 77 % 1014,2 hPa 0,7 mm 8,1 km/h (2 Bft) W 0,00 h 1,1 C 11,3 km/h (2 Bft)
25.03.2016 13:00 4,9 C 5,2 C 78 % 1014,0 hPa 0,7 mm 8,7 km/h (2 Bft) W 0,00 h 1,4 C 10,7 km/h (2 Bft)
25.03.2016 14:00 4,6 C 4,9 C 79 % 1013,7 hPa 0,7 mm 6,4 km/h (2 Bft) W-SW 0,00 h 1,4 C 7,5 km/h (2 Bft)
25.03.2016 15:00 4,6 C 4,3 C 81 % 1013,5 hPa 0,7 mm 8,5 km/h (2 Bft) W 0,00 h 1,5 C 14,3 km/h (3 Bft)
25.03.2016 16:00 3,8 C 3,3 C 83 % 1013,4 hPa 1,4 mm 8,8 km/h (2 Bft) W-SW 0,00 h 1,2 C 12,8 km/h (3 Bft)
25.03.2016 17:00 3,6 C 3,0 C 85 % 1013,3 hPa 1,4 mm 8,8 km/h (2 Bft) W 0,00 h 1,3 C 9,8 km/h (2 Bft)
25.03.2016 18:00 3,3 C 2,5 C 87 % 1013,9 hPa 0,0 mm 12,3 km/h (3 Bft) W-SW 0,00 h 1,4 C 16,9 km/h (3 Bft)
25.03.2016 19:00 3,0 C 2,1 C 88 % 1014,3 hPa 1,4 mm 16,1 km/h (3 Bft) W 0,00 h 1,2 C 22,4 km/h (4 Bft)
25.03.2016 20:00 2,8 C 2,2 C 89 % 1014,5 hPa 1,4 mm 9,2 km/h (2 Bft) W-SW 0,00 h 1,2 C 9,6 km/h (2 Bft)
25.03.2016 21:00 2,9 C 2,2 C 90 % 1015,0 hPa 0,7 mm 10,7 km/h (2 Bft) W 0,00 h 1,4 C 14,7 km/h (3 Bft)
25.03.2016 22:00 2,9 C 2,0 C 91 % 1015,4 hPa 2,1 mm 13,7 km/h (3 Bft) W-SW 0,00 h 1,5 C 19,8 km/h (3 Bft)
25.03.2016 23:00 3,1 C 2,3 C 90 % 1015,7 hPa 0,7 mm 12,5 km/h (3 Bft) SW 0,00 h 1,6 C 14,6 km/h (3 Bft)
26.03.2016 00:00 3,4 C 2,6 C 91 % 1015,9 hPa 2,7 mm 13,5 km/h (3 Bft) W-SW 0,00 h 2,0 C 22,8 km/h (4 Bft)
26.03.2016 01:00 3,6 C 2,9 C 91 % 1016,3 hPa 1,4 mm 12,4 km/h (3 Bft) W-SW 0,00 h 2,3 C 14,8 km/h (3 Bft)
26.03.2016 02:00 3,3 C 2,8 C 91 % 1016,4 hPa 2,1 mm 8,3 km/h (2 Bft) W 0,00 h 2,0 C 10,6 km/h (2 Bft)
26.03.2016 03:00 3,1 C 2,6 C 91 % 1016,4 hPa 3,4 mm 8,9 km/h (2 Bft) NW 0,00 h 1,8 C 12,7 km/h (3 Bft)
26.03.2016 04:00 2,4 C 2,1 C 92 % 1016,9 hPa 2,1 mm 4,6 km/h (1 Bft) SW 0,00 h 1,2 C 3,6 km/h (1 Bft)
26.03.2016 05:00 2,4 C 2,0 C 92 % 1017,8 hPa 0,7 mm 6,3 km/h (2 Bft) W 0,00 h 1,2 C 7,8 km/h (2 Bft)
26.03.2016 06:00 2,6 C 2,4 C 92 % 1018,8 hPa 1,4 mm 3,2 km/h (1 Bft) W 0,00 h 1,4 C 4,4 km/h (1 Bft)
26.03.2016 07:00 2,6 C 2,5 C 90 % 1019,4 hPa 0,7 mm 1,9 km/h (1 Bft) W 0,00 h 1,1 C 2,9 km/h (1 Bft)
26.03.2016 08:00 3,5 C 4,2 C 87 % 1019,4 hPa 0,0 mm 4,3 km/h (1 Bft) SW 0,00 h 1,5 C 4,4 km/h (1 Bft)
26.03.2016 09:00 5,5 C 9,9 C 84 % 1020,2 hPa 0,0 mm 4,2 km/h (1 Bft) W-SW 0,83 h 3,0 C 5,0 km/h (1 Bft)
26.03.2016 10:00 7,3 C 12,6 C 78 % 1020,4 hPa 0,0 mm 4,9 km/h (1 Bft) W 1,00 h 3,7 C 6,8 km/h (2 Bft)
26.03.2016 11:00 8,9 C 14,3 C 70 % 1020,6 hPa 0,0 mm 7,6 km/h (2 Bft) NW 1,00 h 3,7 C 10,1 km/h (2 Bft)
26.03.2016 12:00 10,5 C 14,4 C 61 % 1020,4 hPa 0,0 mm 9,1 km/h (2 Bft) W 0,42 h 3,4 C 10,8 km/h (2 Bft)
26.03.2016 13:00 11,5 C 17,1 C 58 % 1019,9 hPa 0,0 mm 5,5 km/h (1 Bft) NW 0,83 h 3,5 C 6,9 km/h (2 Bft)
26.03.2016 14:00 11,3 C 15,9 C 56 % 1018,6 hPa 0,0 mm 6,1 km/h (2 Bft) N-NO 0,83 h 2,9 C 8,0 km/h (2 Bft)
26.03.2016 15:00 11,6 C 16,0 C 56 % 1017,5 hPa 0,0 mm 7,3 km/h (2 Bft) O-NO 0,92 h 3,2 C 9,7 km/h (2 Bft)
26.03.2016 16:00 11,1 C 13,0 C 57 % 1017,1 hPa 0,0 mm 8,7 km/h (2 Bft) NO 0,30 h 2,8 C 9,7 km/h (2 Bft)
26.03.2016 17:00 9,6 C 10,5 C 58 % 1016,7 hPa 0,0 mm 6,3 km/h (2 Bft) O-NO 0,00 h 1,7 C 7,7 km/h (2 Bft)
26.03.2016 18:00 7,4 C 7,3 C 63 % 1016,5 hPa 0,0 mm 0,4 km/h (0 Bft) N 0,00 h 0,8 C 0,3 km/h (0 Bft)
26.03.2016 19:00 5,2 C 4,7 C 72 % 1016,2 hPa 0,0 mm 0,2 km/h (0 Bft) N 0,00 h 0,6 C 0,3 km/h (0 Bft)
26.03.2016 20:00 2,8 C 2,3 C 79 % 1015,7 hPa 0,0 mm 0,2 km/h (0 Bft) N 0,00 h -0,5 C 0,3 km/h (0 Bft)
26.03.2016 21:00 1,0 C 0,5 C 83 % 1015,5 hPa 0,0 mm 0,0 km/h (0 Bft) N 0,00 h -1,6 C 0,0 km/h (0 Bft)
26.03.2016 22:00 1,2 C 0,8 C 86 % 1014,6 hPa 0,0 mm 0,3 km/h (0 Bft) W-NW 0,00 h -0,9 C 0,0 km/h (0 Bft)
26.03.2016 23:00 1,4 C 0,9 C 87 % 1013,8 hPa 0,0 mm 1,6 km/h (1 Bft) SO 0,00 h -0,6 C 2,1 km/h (1 Bft)
27.03.2016 00:00 1,1 C 0,6 C 86 % 1013,7 hPa 0,0 mm 2,0 km/h (1 Bft) S 0,00 h -1,0 C 3,5 km/h (1 Bft)
27.03.2016 01:00 0,4 C -0,2 C 87 % 1013,7 hPa 0,0 mm 2,7 km/h (1 Bft) O-SO 0,00 h -1,5 C 4,6 km/h (1 Bft)
27.03.2016 03:00 -0,4 C -0,9 C 87 % 1013,0 hPa 0,0 mm 0,7 km/h (0 Bft) O-NO 0,00 h -2,4 C 1,0 km/h (0 Bft)
27.03.2016 04:00 -1,0 C -1,5 C 87 % 1012,3 hPa 0,0 mm 0,0 km/h (0 Bft) N 0,00 h -2,9 C 0,0 km/h (0 Bft)
27.03.2016 05:00 0,2 C -0,4 C 86 % 1011,9 hPa 0,0 mm 0,2 km/h (0 Bft) N 0,00 h -1,8 C 0,0 km/h (0 Bft)
27.03.2016 06:00 1,6 C 1,0 C 78 % 1011,3 hPa 0,0 mm 1,2 km/h (1 Bft) NO 0,00 h -1,9 C 1,4 km/h (1 Bft)
27.03.2016 07:00 2,2 C 2,0 C 72 % 1011,0 hPa 0,0 mm 0,3 km/h (0 Bft) N 0,00 h -2,3 C 0,3 km/h (0 Bft)
27.03.2016 08:00 4,8 C 11,1 C 65 % 1010,7 hPa 0,0 mm 0,1 km/h (0 Bft) N 0,75 h -1,3 C 0,3 km/h (0 Bft)
27.03.2016 09:00 10,0 C 16,7 C 55 % 1010,8 hPa 0,0 mm 0,2 km/h (0 Bft) N-NO 1,00 h 1,4 C 0,3 km/h (0 Bft)
27.03.2016 10:00 12,6 C 17,5 C 48 % 1011,6 hPa 0,0 mm 1,7 km/h (1 Bft) N-NO 1,00 h 1,9 C 2,0 km/h (1 Bft)
27.03.2016 11:00 12,3 C 14,6 C 46 % 1013,7 hPa 0,0 mm 20,4 km/h (4 Bft) NW 0,33 h 1,0 C 33,1 km/h (5 Bft)
27.03.2016 12:00 11,1 C 12,9 C 56 % 1014,7 hPa 0,0 mm 21,4 km/h (4 Bft) W-SW 0,00 h 2,6 C 26,0 km/h (4 Bft)
27.03.2016 13:00 11,0 C 12,1 C 57 % 1014,9 hPa 0,0 mm 22,1 km/h (4 Bft) W 0,00 h 2,8 C 26,5 km/h (4 Bft)
27.03.2016 14:00 12,3 C 15,0 C 55 % 1014,8 hPa 0,0 mm 18,7 km/h (3 Bft) W-NW 0,25 h 3,6 C 23,4 km/h (4 Bft)
27.03.2016 15:00 10,6 C 11,3 C 56 % 1014,4 hPa 0,0 mm 16,4 km/h (3 Bft) W 0,00 h 2,3 C 22,0 km/h (4 Bft)
27.03.2016 16:00 9,9 C 11,0 C 58 % 1013,7 hPa 0,0 mm 9,0 km/h (2 Bft) W-SW 0,00 h 2,0 C 10,4 km/h (2 Bft)
27.03.2016 17:00 9,3 C 10,0 C 59 % 1013,3 hPa 0,0 mm 7,4 km/h (2 Bft) W-SW 0,00 h 1,8 C 9,4 km/h (2 Bft)
27.03.2016 18:00 8,4 C 8,6 C 59 % 1013,2 hPa 0,0 mm 6,6 km/h (2 Bft) W-SW 0,00 h 0,9 C 7,5 km/h (2 Bft)
27.03.2016 19:00 7,4 C 7,3 C 62 % 1013,3 hPa 0,0 mm 6,6 km/h (2 Bft) W-SW 0,00 h 0,6 C 7,0 km/h (2 Bft)
27.03.2016 20:00 7,0 C 6,9 C 65 % 1013,6 hPa 0,0 mm 6,9 km/h (2 Bft) SW 0,00 h 1,0 C 8,9 km/h (2 Bft)
27.03.2016 21:00 5,6 C 5,1 C 75 % 1014,4 hPa 0,7 mm 10,1 km/h (2 Bft) W 0,00 h 1,6 C 12,7 km/h (3 Bft)
27.03.2016 22:00 4,1 C 3,7 C 82 % 1014,6 hPa 0,7 mm 7,2 km/h (2 Bft) SW 0,00 h 1,4 C 7,8 km/h (2 Bft)
27.03.2016 23:00 3,6 C 3,3 C 84 % 1014,3 hPa 0,7 mm 3,8 km/h (1 Bft) W-SW 0,00 h 1,2 C 4,0 km/h (1 Bft)
Min-Datum _ 27.03.16 27.03.16 27.03.16 23.03.16 - 27.03.16 - - 24.03.16 27.03.16
_ Min-Zeit 04:10 04:10 11:15 06:00 - 23:45 - - 23:55 23:25
Minimum _ -1,4 C -1,8 C 42 % 1005,9 hPa - 0,0 km/h (0 Bft) - - -4,0 C 0,0 km/h (0 Bft)
Max-Datum _ 27.03.16 27.03.16 26.03.16 26.03.16 26.03.16 27.03.16 - 27.03.16 26.03.16 27.03.16
_ Max-Zeit 11:05 11:05 07:00 11:00 03:10 11:55 - 14:40 11:05 11:55
Maximum _ 14,6 C 19,3 C 92 % 1020,6 hPa 3,4 mm 28,9 km/h
NW (5 Bft)
- 0,08 h 4,3 C 69,1 km/h
NW (8 Bft)
Durchschnitt _ 3,5 C 4,1 C 75 % 1013,1 hPa #29,5 mm 4,6 km/h (1 Bft) W #12:23 h -0,6 C 5,9 km/h (2 Bft)